Date,TemperatureHighF,TemperatureAvgF,TemperatureLowF,DewpointHighF,DewpointAvgF,DewpointLowF,HumidityHigh,HumidityAvg,HumidityLow,PressureMaxIn,PressureMinIn,WindSpeedMaxMPH,WindSpeedAvgMPH,GustSpeedMaxMPH,PrecipitationSumIn
2013-1-1,37.6,33.4,24.6,30.3,25.5,13.9,86,73,58,30.06,29.88,4,2,12,0.00
2013-1-2,32.4,24.5,15.3,18.7,15.3,11.7,88,68,52,30.24,30.04,11,1,12,0.00
2013-1-3,32.3,25.0,15.7,21.6,17.0,12.8,90,72,54,30.24,30.11,11,1,14,0.00
2013-1-4,36.9,32.1,26.6,25.0,22.4,19.6,76,67,58,30.13,30.00,14,3,22,0.00
2013-1-5,42.0,31.8,23.9,25.2,21.9,19.0,89,68,47,30.34,30.07,15,2,15,0.00
2013-1-6,44.6,34.8,27.7,31.9,28.2,24.0,90,78,57,30.25,30.01,9,1,14,0.00
2013-1-7,43.4,33.8,19.5,31.7,26.0,17.9,95,74,49,30.43,30.10,11,1,11,0.00
2013-1-8,46.9,28.5,16.1,32.7,23.6,14.4,96,83,54,30.44,30.38,8,1,9,0.00
2013-1-9,42.3,31.2,18.9,37.5,28.3,17.5,97,89,77,30.43,30.19,8,1,12,0.00
2013-1-10,48.2,38.3,29.1,32.3,27.4,24.2,88,66,44,30.57,30.30,11,2,13,0.00
2013-1-11,42.8,36.8,28.5,41.4,33.1,25.0,98,87,73,30.56,30.12,6,0,9,0.45
2013-1-12,46.2,41.9,36.7,43.9,40.8,35.9,98,96,90,30.20,30.12,4,0,8,0.00
2013-1-13,46.7,44.3,41.8,46.4,43.9,41.3,99,99,98,30.17,30.00,7,0,8,0.02
2013-1-14,56.3,47.3,37.6,50.8,41.8,29.9,99,83,53,30.32,29.90,10,1,13,0.07
2013-1-15,37.5,34.8,31.8,32.6,28.6,26.2,91,78,68,30.38,30.23,7,1,10,0.10
2013-1-16,33.3,31.9,31.0,32.5,30.9,29.6,98,96,92,30.24,29.83,8,1,9,0.28
2013-1-17,41.9,35.8,32.5,33.0,30.5,25.0,97,81,64,30.13,29.96,9,1,12,0.23
2013-1-18,32.5,25.8,17.3,25.5,14.3,6.7,84,63,40,30.50,30.03,18,2,21,0.00
2013-1-19,47.6,34.3,17.4,29.6,24.2,13.0,87,68,46,30.43,29.94,14,2,16,0.02
2013-1-20,51.7,37.0,26.6,33.2,22.8,10.5,95,60,28,30.09,29.74,19,2,22,0.00
2013-1-21,28.8,25.0,20.7,18.8,13.1,8.7,84,61,49,30.11,29.89,9,1,12,0.00
2013-1-22,22.4,15.8,9.9,9.1,0.3,-6.1,64,50,36,30.26,29.89,16,3,21,0.00
2013-1-23,20.0,10.4,3.3,2.8,-0.3,-5.2,88,63,38,30.31,30.22,13,2,18,0.00
2013-1-24,23.4,13.0,2.4,7.2,1.7,-2.2,91,64,34,30.49,30.17,18,2,24,0.00
2013-1-25,21.1,13.5,2.7,13.7,4.5,-2.8,91,68,48,30.49,30.10,8,1,10,0.00
2013-1-26,26.8,16.5,2.7,11.7,7.3,-0.1,92,69,45,30.43,30.10,13,1,14,0.00
2013-1-27,34.6,18.3,4.5,16.8,9.9,1.5,90,72,40,30.59,30.43,10,1,13,0.00
2013-1-28,33.7,27.4,14.2,32.7,25.0,10.8,97,90,77,30.54,30.05,10,1,10,0.12
2013-1-29,50.4,40.9,33.7,45.5,38.5,32.7,97,91,80,30.17,30.05,7,1,9,0.13
2013-1-30,64.2,49.7,39.9,59.5,48.7,38.9,99,96,80,30.08,29.33,16,1,19,0.54
2013-1-31,59.4,40.5,25.6,59.1,30.0,10.9,99,67,39,29.83,29.07,24,5,29,1.35
2013-2-1,28.5,24.5,19.0,18.5,13.0,7.9,83,62,43,30.29,29.82,15,3,20,0.00
2013-2-2,24.8,19.7,13.7,18.9,11.4,6.2,93,71,51,30.33,30.07,12,2,14,0.00
2013-2-3,30.0,20.9,11.1,21.4,17.4,9.0,96,87,68,30.08,29.84,8,1,10,0.01
2013-2-4,28.7,23.2,18.8,19.0,13.3,9.9,81,66,48,30.03,29.87,15,2,17,0.00
2013-2-5,30.6,26.9,22.7,27.1,23.2,16.7,94,86,76,30.00,29.92,4,0,5,0.00
2013-2-6,37.8,30.1,22.2,27.6,22.2,12.0,97,74,51,30.38,29.95,12,1,16,0.01
2013-2-7,31.8,24.5,14.4,20.6,14.5,10.4,86,66,48,30.53,30.33,8,1,11,0.00
2013-2-8,34.1,31.7,29.2,31.6,28.4,21.0,96,88,71,30.33,29.72,13,3,17,0.02
2013-2-9,32.1,26.0,16.3,30.0,15.8,6.2,97,67,45,30.41,29.80,19,3,23,0.00
2013-2-10,39.4,21.7,3.7,20.6,11.3,0.7,93,67,33,30.52,30.34,6,0,7,0.06
2013-2-11,39.8,34.5,27.5,39.2,32.1,19.8,99,91,68,30.34,29.70,5,0,7,0.02
2013-2-12,41.7,37.8,31.2,35.2,26.8,23.5,98,65,55,30.01,29.78,16,2,17,0.00
2013-2-13,42.7,31.6,18.1,31.0,25.4,16.3,96,79,54,29.99,29.71,5,0,7,0.01
2013-2-14,44.8,33.5,23.6,33.7,28.6,22.1,98,84,55,30.03,29.75,9,1,11,0.08
2013-2-15,53.1,37.5,22.4,37.1,29.1,21.2,97,75,41,30.04,29.95,17,2,19,0.09
2013-2-16,34.6,31.4,26.8,31.7,24.1,11.0,97,75,51,30.01,29.82,11,1,14,0.06
2013-2-17,30.4,24.2,16.4,12.2,6.4,0.4,54,46,36,30.09,29.77,19,5,25,0.00
2013-2-18,34.9,22.9,13.7,16.0,8.2,0.5,72,54,37,30.33,30.09,19,2,20,0.00
2013-2-19,40.7,30.2,18.4,37.6,26.1,14.5,98,85,58,30.22,29.74,17,1,19,0.36
2013-2-20,33.4,27.1,22.7,25.6,14.6,9.9,73,59,50,30.06,29.79,24,4,26,0.00
2013-2-21,34.2,25.7,20.7,17.0,13.9,10.5,73,61,47,30.34,30.04,18,3,21,0.00
2013-2-22,36.0,28.0,17.1,28.6,20.4,12.7,86,73,59,30.44,30.28,13,1,14,0.00
2013-2-23,42.2,37.0,32.3,41.3,35.7,28.4,97,95,85,30.28,29.85,6,1,7,0.16
2013-2-24,44.9,36.1,30.9,39.1,30.1,21.6,98,80,60,30.03,29.81,12,2,17,0.00
2013-2-25,43.1,33.3,22.8,29.9,25.7,21.3,95,74,56,30.28,30.04,11,1,13,0.00
2013-2-26,43.3,32.8,21.4,33.0,27.9,20.1,96,83,63,30.30,29.87,16,2,16,0.20
2013-2-27,47.6,41.2,34.5,45.5,38.4,32.7,96,90,78,29.88,29.54,16,3,23,0.24
2013-2-28,45.3,37.9,32.4,37.2,32.4,29.5,98,81,59,29.67,29.59,9,1,12,0.01
2013-3-1,43.9,35.7,27.2,31.3,28.0,24.0,97,75,59,29.85,29.66,11,2,16,0.00
2013-3-2,37.6,32.2,28.0,25.1,22.7,19.4,75,68,58,29.85,29.76,11,2,12,0.00
2013-3-3,34.4,29.6,26.3,21.3,18.8,16.5,72,64,55,29.84,29.75,16,3,17,0.00
2013-3-4,41.6,32.6,26.2,23.9,19.7,16.8,70,59,42,29.99,29.84,17,4,21,0.00
2013-3-5,48.0,35.7,28.6,29.1,24.2,21.2,85,64,43,30.06,29.97,12,2,14,0.00
2013-3-6,41.3,37.6,29.7,35.5,30.3,25.2,88,75,65,29.99,29.86,29,6,29,0.00
2013-3-7,44.4,37.4,31.0,31.9,27.8,24.5,92,69,50,30.14,29.98,18,4,18,0.00
2013-3-8,43.5,34.3,28.2,31.7,28.2,23.8,95,80,60,30.27,30.07,14,3,21,0.18
2013-3-9,59.1,40.0,26.9,29.5,23.6,18.6,88,57,21,30.34,30.25,10,1,11,0.00
2013-3-10,56.3,39.3,23.3,35.9,28.5,21.4,94,70,32,30.40,30.28,10,2,15,0.00
2013-3-11,56.1,44.8,35.4,47.8,39.7,31.4,98,84,55,30.34,30.07,12,2,13,0.00
2013-3-12,57.7,51.4,42.3,56.1,48.1,35.8,97,88,76,30.07,29.68,15,2,17,1.49
2013-3-13,48.9,39.9,27.7,36.1,29.0,21.4,96,66,42,29.95,29.84,14,2,18,0.00
2013-3-14,40.9,33.2,28.3,21.8,13.8,7.1,64,46,28,30.01,29.91,19,5,23,0.00
2013-3-15,45.5,36.3,23.2,31.4,21.7,11.0,71,55,43,30.03,29.75,15,3,17,0.00
2013-3-16,41.7,32.2,24.7,30.3,26.8,21.4,93,81,63,29.95,29.80,9,1,11,0.03
2013-3-17,36.6,30.6,24.7,29.2,20.8,16.6,97,69,47,30.34,29.96,13,2,13,0.01
2013-3-18,35.1,28.3,20.4,30.6,20.2,10.9,96,73,49,30.42,29.99,13,2,15,0.00
2013-3-19,48.4,37.5,31.7,38.7,31.1,17.5,97,80,44,29.99,29.72,18,2,18,0.46
2013-3-20,44.9,35.1,27.3,25.3,20.8,17.5,77,57,36,29.92,29.81,18,3,21,0.00
2013-3-21,38.4,31.5,26.5,26.8,17.7,11.4,84,58,36,29.86,29.68,13,2,17,0.00
2013-3-22,40.5,31.6,21.6,23.3,19.5,12.4,79,62,43,29.94,29.78,14,2,18,0.00
2013-3-23,44.5,36.3,28.2,24.5,20.7,17.9,75,54,37,29.99,29.89,19,3,20,0.00
2013-3-24,46.1,36.6,21.8,26.3,21.4,17.4,84,56,35,29.99,29.72,13,2,13,0.00
2013-3-25,38.9,35.3,32.9,34.3,30.3,25.3,94,82,65,29.72,29.51,12,1,12,0.11
2013-3-26,51.4,40.1,30.6,36.0,30.3,23.8,95,71,38,29.93,29.65,16,2,16,0.00
2013-3-27,51.8,40.2,28.9,34.3,28.4,20.4,88,65,32,30.05,29.92,14,2,18,0.02
2013-3-28,47.7,40.2,27.4,33.5,29.1,25.0,92,66,48,30.17,30.02,12,2,14,0.00
2013-3-29,51.7,42.6,27.3,31.9,29.2,24.1,90,61,39,30.19,30.12,14,2,15,0.00
2013-3-30,58.3,40.6,23.6,34.7,25.3,19.1,97,61,23,30.22,30.09,11,1,12,0.00
2013-3-31,57.1,40.8,24.7,42.6,32.6,21.8,96,76,40,30.15,29.73,17,2,18,0.08
2013-4-1,59.7,45.7,34.3,47.9,35.0,12.4,98,70,31,29.96,29.67,16,3,22,0.03
2013-4-2,43.0,33.8,21.5,19.8,14.7,11.0,75,47,29,30.14,29.96,18,3,24,0.00
2013-4-3,45.4,34.7,21.0,21.1,13.9,8.8,71,44,28,30.36,30.13,17,3,18,0.00
2013-4-4,53.7,38.8,20.9,26.9,19.7,12.0,78,48,29,30.43,30.10,13,2,14,0.00
2013-4-5,61.7,46.9,28.9,31.4,25.0,18.6,86,46,22,30.10,29.78,17,3,19,0.00
2013-4-6,53.3,40.1,30.6,24.9,17.9,11.3,66,43,21,30.33,30.05,13,2,15,0.00
2013-4-7,62.9,48.5,33.3,42.3,33.6,23.7,80,58,38,30.32,30.00,15,3,19,0.00
2013-4-8,77.0,59.3,37.6,50.1,43.2,35.8,95,60,27,30.10,29.97,14,1,15,0.00
2013-4-9,81.9,66.1,48.6,55.1,46.7,36.5,96,56,20,30.00,29.90,18,2,23,0.01
2013-4-10,86.1,65.9,54.5,60.7,53.9,45.9,97,68,37,29.95,29.80,18,2,19,0.72
2013-4-11,59.3,55.4,46.9,58.5,51.8,42.6,98,88,72,30.02,29.78,16,2,16,0.01
2013-4-12,47.2,43.1,40.8,42.9,40.6,39.1,96,91,78,29.99,29.73,15,3,17,0.70
2013-4-13,57.9,46.8,35.5,43.3,37.3,32.8,99,72,44,30.00,29.78,13,2,15,0.00
2013-4-14,59.7,48.6,35.3,39.8,34.1,28.4,94,61,32,30.22,29.99,18,2,18,0.00
2013-4-15,61.1,50.0,38.1,40.0,35.0,29.8,78,57,43,30.37,30.22,13,2,13,0.00
2013-4-16,69.3,58.1,46.1,57.0,49.2,37.0,87,73,63,30.37,30.12,18,3,22,0.00
2013-4-17,72.3,59.6,46.7,57.2,42.9,31.0,92,59,23,30.30,30.13,13,1,13,0.00
2013-4-18,57.0,50.6,40.7,52.9,45.6,38.4,95,83,63,30.33,30.09,13,2,14,0.01
2013-4-19,76.2,64.9,53.7,65.1,59.8,50.3,95,84,65,30.09,29.61,22,4,22,0.97
2013-4-20,56.7,49.5,41.1,51.0,35.3,22.4,92,61,35,30.35,29.73,16,3,19,0.09
2013-4-21,54.7,42.2,30.2,32.4,24.6,19.1,80,51,29,30.64,30.35,13,2,14,0.00
2013-4-22,54.4,42.1,28.2,38.1,31.4,26.6,96,68,45,30.66,30.50,16,2,19,0.00
2013-4-23,49.4,43.0,35.4,41.7,36.5,30.8,95,78,67,30.50,30.16,11,2,12,0.00
2013-4-24,71.3,54.3,32.2,56.0,46.0,31.1,98,76,51,30.16,29.81,16,2,17,0.00
2013-4-25,64.2,51.5,37.2,56.2,33.1,26.2,82,52,26,30.29,29.88,17,2,24,0.01
2013-4-26,64.8,48.8,32.5,38.3,31.7,23.1,94,57,21,30.44,30.29,11,1,16,0.00
2013-4-27,70.5,52.2,31.1,40.7,34.2,29.2,95,56,26,30.46,30.28,11,1,11,0.00
2013-4-28,71.5,55.4,34.3,46.4,37.9,31.7,97,57,32,30.33,30.18,14,2,17,0.00
2013-4-29,53.7,51.7,49.7,51.1,48.3,39.4,96,89,61,30.25,30.17,10,1,15,0.14
2013-4-30,66.5,54.9,38.2,52.0,42.9,21.9,96,69,25,30.35,30.20,13,2,14,0.00
2013-5-1,69.9,51.4,31.1,44.0,35.5,27.3,94,62,22,30.50,30.35,14,2,15,0.00
2013-5-2,73.5,54.3,32.4,49.2,41.1,31.6,98,67,30,30.49,30.34,10,1,12,0.00
2013-5-3,67.0,55.1,41.8,42.5,39.5,30.7,90,59,26,30.46,30.34,12,2,17,0.00
2013-5-4,71.3,53.8,33.7,48.1,40.4,32.7,98,66,31,30.39,30.22,13,2,16,0.00
2013-5-5,67.3,50.3,35.2,46.0,40.0,34.1,98,72,35,30.31,30.21,11,1,15,0.00
2013-5-6,70.3,53.7,35.4,54.8,46.4,34.3,97,78,55,30.27,30.15,11,1,14,0.00
2013-5-7,74.0,59.8,43.0,59.5,52.0,42.2,98,78,55,30.19,30.08,11,2,16,0.00
2013-5-8,70.8,61.2,56.3,63.8,58.3,53.3,97,91,65,30.10,29.94,12,1,15,1.49
2013-5-9,69.2,59.4,51.6,59.2,55.2,50.8,98,87,63,30.00,29.91,9,0,9,0.07
2013-5-10,80.4,63.6,46.1,63.2,55.8,45.6,99,79,44,30.03,29.90,11,1,12,0.14
2013-5-11,72.3,64.1,55.7,65.2,61.2,54.9,98,91,73,29.93,29.71,11,1,11,0.71
2013-5-12,64.6,56.9,46.4,55.7,41.3,27.5,98,59,32,29.98,29.70,20,3,27,0.00
2013-5-13,54.2,45.1,33.3,34.9,31.1,26.1,93,60,36,30.16,29.98,13,2,17,0.00
2013-5-14,61.9,45.7,30.1,35.5,30.6,22.2,96,63,25,30.18,30.05,13,1,13,0.00
2013-5-15,74.8,57.5,36.4,58.7,48.3,33.7,92,73,53,30.10,29.70,15,1,15,0.00
2013-5-16,84.0,65.0,49.5,61.1,52.7,42.8,98,70,25,29.88,29.74,15,1,15,0.00
2013-5-17,75.8,59.8,44.7,48.0,43.1,38.2,88,57,28,30.22,29.88,9,1,12,0.00
2013-5-18,64.2,56.4,45.7,56.3,50.8,43.4,93,82,60,30.31,30.21,7,0,8,0.01
2013-5-19,61.4,57.5,54.9,58.4,55.6,53.1,96,93,85,30.31,30.18,11,1,12,0.12
2013-5-20,79.8,66.4,56.6,68.5,61.7,55.7,98,86,64,30.20,29.98,9,1,10,0.00
2013-5-21,87.4,72.0,57.0,74.1,65.8,56.4,99,83,55,30.00,29.85,13,1,13,0.00
2013-5-22,86.7,73.9,61.1,74.0,67.9,60.4,98,83,54,29.92,29.81,11,1,12,0.00
2013-5-23,79.5,68.8,61.2,71.2,65.7,60.0,98,90,70,29.90,29.75,13,1,17,1.37
2013-5-24,62.9,52.7,43.3,61.5,49.6,39.3,98,89,73,30.03,29.71,16,2,20,0.43
2013-5-25,57.9,50.7,43.0,44.0,38.5,33.1,91,65,43,30.07,29.98,19,4,22,0.27
2013-5-26,67.4,54.9,40.2,42.2,37.2,31.8,85,54,30,30.24,30.04,17,3,22,0.00
2013-5-27,74.3,54.9,33.5,47.6,40.3,32.4,98,65,27,30.29,30.16,8,1,13,0.00
2013-5-28,58.2,53.4,43.3,56.4,51.4,42.2,98,93,78,30.24,30.14,6,0,8,0.27
2013-5-29,86.5,68.2,56.8,73.5,62.9,56.0,99,86,54,30.15,30.02,10,1,12,0.00
2013-5-30,92.3,75.5,59.4,70.6,64.4,58.8,99,73,34,30.16,30.07,9,1,9,0.00
2013-5-31,91.8,75.6,60.3,74.5,64.2,57.8,99,73,36,30.14,30.00,10,1,11,0.00
2013-6-1,90.3,75.4,57.9,72.7,66.1,57.1,99,76,49,30.04,29.90,11,1,13,0.00
2013-6-2,86.9,75.8,67.1,72.2,68.4,65.0,97,80,53,29.92,29.77,15,2,17,0.20
2013-6-3,80.3,71.3,61.7,71.1,64.4,50.3,97,80,58,29.93,29.81,7,1,10,0.30
2013-6-4,75.8,62.8,49.7,51.0,46.4,41.5,81,57,31,30.14,29.93,11,1,12,0.00
2013-6-5,76.1,62.6,48.5,54.4,46.7,39.0,89,58,35,30.23,30.10,9,1,10,0.00
2013-6-6,69.2,59.6,48.6,60.3,54.8,47.5,98,85,55,30.15,30.00,10,1,11,0.33
2013-6-7,63.5,61.0,58.9,62.6,60.0,57.6,97,96,94,29.99,29.65,10,1,10,2.48
2013-6-8,78.0,66.1,57.2,65.6,60.8,56.2,98,84,60,30.08,29.65,10,1,14,0.11
2013-6-9,83.2,67.4,52.2,66.6,59.1,51.7,99,78,41,30.19,30.08,9,1,11,0.00
2013-6-10,70.8,64.8,59.7,69.8,63.5,58.6,98,96,90,30.17,29.80,10,1,13,1.72
2013-6-11,78.7,72.3,66.6,69.9,66.0,61.1,97,81,63,29.79,29.67,15,2,16,0.02
2013-6-12,80.2,69.2,57.8,61.1,57.5,53.3,94,69,41,29.86,29.75,13,2,16,0.00
2013-6-13,66.8,60.5,55.9,63.3,58.5,54.2,96,93,85,29.86,29.46,12,1,13,1.21
2013-6-14,77.3,61.6,53.0,62.4,54.4,49.9,96,79,48,29.95,29.56,15,2,17,0.13
2013-6-15,81.5,64.9,48.6,62.1,54.9,47.8,98,74,40,30.05,29.94,10,1,11,0.00
2013-6-16,81.7,66.8,52.1,66.0,58.9,51.3,98,78,46,30.03,29.81,16,1,18,0.00
2013-6-17,87.4,71.9,58.2,70.1,63.1,56.1,98,77,36,29.94,29.84,10,1,13,0.00
2013-6-18,84.0,67.7,57.7,71.2,63.5,56.9,98,88,57,29.92,29.81,8,0,9,0.85
2013-6-19,80.5,65.5,55.0,58.6,54.1,48.0,94,70,35,30.17,29.91,11,1,11,0.00
2013-6-20,81.7,64.6,47.7,63.5,55.6,46.6,98,76,44,30.28,30.17,3,1,9,0.00
2013-6-21,83.9,66.8,51.2,63.0,56.8,50.1,98,74,43,30.32,30.24,3,1,12,0.00
2013-6-22,85.3,68.5,51.6,69.0,61.5,50.6,98,81,52,30.28,30.12,4,1,13,0.00
2013-6-23,88.0,73.8,58.6,73.0,67.0,57.7,98,81,55,30.21,30.06,5,1,12,0.00
2013-6-24,92.5,76.8,65.4,74.7,69.3,58.6,97,80,47,30.09,29.98,5,1,14,0.18
2013-6-25,91.1,74.8,62.8,76.6,68.6,61.9,98,83,55,30.03,29.84,4,1,12,0.19
2013-6-26,87.0,75.3,65.8,71.7,67.8,63.4,96,79,55,29.88,29.80,3,1,12,0.01
2013-6-27,88.6,74.6,63.4,73.0,68.3,62.2,98,83,56,29.84,29.54,4,1,17,0.81
2013-6-28,86.9,75.5,65.8,72.3,68.9,63.7,96,81,55,29.56,29.47,5,1,16,0.32
2013-6-29,86.3,73.6,63.5,69.5,65.8,62.3,97,79,48,29.71,29.49,4,1,11,0.00
2013-6-30,84.2,73.0,62.9,74.9,68.4,61.7,97,86,67,29.91,29.71,4,1,12,0.00
2013-7-1,78.9,74.0,69.7,74.0,71.5,68.5,97,92,82,30.03,29.88,5,1,15,1.38
2013-7-2,84.5,76.9,73.2,75.5,72.5,70.3,95,87,71,30.18,30.03,4,2,12,0.10
2013-7-3,85.7,76.9,70.2,75.8,72.3,68.4,96,86,70,30.25,30.17,4,1,10,0.01
2013-7-4,89.0,79.1,70.7,77.1,72.9,69.5,97,83,61,30.26,30.15,4,1,13,0.00
2013-7-5,91.6,80.2,68.4,77.5,72.5,67.5,98,79,54,30.22,30.10,5,1,16,0.00
2013-7-6,93.4,80.3,72.6,77.1,72.9,70.8,95,80,54,30.16,30.04,3,1,10,0.00
2013-7-7,92.6,79.9,69.3,78.4,72.7,67.7,97,81,56,30.09,29.95,5,1,13,0.03
2013-7-8,87.6,75.4,66.3,73.8,68.8,64.8,95,82,57,30.07,29.98,3,1,11,0.01
2013-7-9,86.9,73.5,63.2,74.9,68.9,61.9,97,87,63,30.09,30.00,5,0,14,0.92
2013-7-10,86.5,76.5,68.6,76.4,72.1,67.4,96,87,63,30.03,29.83,3,1,12,0.12
2013-7-11,85.6,76.2,67.3,74.1,69.9,61.4,96,82,57,29.94,29.82,2,0,5,0.00
2013-7-12,78.7,71.5,67.6,70.6,65.4,61.1,95,82,70,30.08,29.94,3,1,11,0.13
2013-7-13,83.8,73.5,66.8,76.6,70.6,65.4,96,91,75,30.30,30.08,3,1,9,0.20
2013-7-14,91.4,80.1,71.3,77.5,73.5,69.7,96,82,54,30.36,30.25,3,1,12,0.00
2013-7-15,95.0,80.2,68.6,79.0,73.0,67.4,96,81,52,30.28,30.16,4,0,9,0.00
2013-7-16,94.4,79.8,67.2,78.3,70.4,66.0,96,76,44,30.24,30.15,3,0,10,0.00
2013-7-17,95.9,80.5,66.0,78.5,70.5,64.8,96,75,41,30.22,30.07,2,0,8,0.00
2013-7-18,97.9,83.7,70.6,79.3,73.8,69.4,96,76,43,30.10,29.98,2,1,8,0.00
2013-7-19,95.2,82.7,70.4,79.9,74.7,69.2,96,79,54,29.99,29.81,5,1,14,0.00
2013-7-20,91.9,79.8,71.0,76.7,72.2,68.5,94,79,54,29.85,29.75,4,1,14,0.00
2013-7-21,88.5,77.7,68.8,72.9,69.4,67.4,96,78,53,29.97,29.85,2,1,8,0.00
2013-7-22,86.7,74.2,66.8,75.6,70.3,65.3,96,88,66,29.97,29.80,7,0,15,0.40
2013-7-23,86.1,76.0,68.3,76.2,71.3,66.8,96,86,64,29.80,29.58,3,1,11,1.05
2013-7-24,79.6,71.1,61.3,69.2,63.2,52.0,96,78,55,29.97,29.65,4,1,12,0.01
2013-7-25,71.7,63.4,57.4,62.0,55.9,51.1,91,77,66,30.07,29.95,4,1,12,0.00
2013-7-26,83.0,69.0,57.0,63.9,59.5,55.8,96,75,44,30.07,30.01,3,1,8,0.00
2013-7-27,84.0,70.2,54.0,69.2,62.4,52.9,97,78,55,30.07,29.94,3,1,9,0.00
2013-7-28,79.5,69.3,63.1,72.9,66.9,61.3,96,92,78,30.00,29.90,4,0,11,1.46
2013-7-29,81.2,69.5,56.9,66.9,61.2,55.1,97,78,42,30.14,29.97,3,1,12,0.01
2013-7-30,80.7,65.2,52.2,63.9,57.8,51.1,97,79,51,30.21,30.13,3,0,11,0.00
2013-7-31,82.2,67.5,52.7,66.5,59.6,51.6,97,79,47,30.19,30.05,3,0,8,0.00
2013-8-1,68.6,65.8,61.9,67.1,64.4,60.7,96,95,93,30.05,29.85,2,0,12,0.81
2013-8-2,82.1,71.0,60.8,68.9,63.9,59.1,97,81,51,29.94,29.83,3,1,11,0.01
2013-8-3,78.0,66.6,59.2,69.5,63.3,57.8,96,90,68,29.94,29.87,4,1,12,0.19
2013-8-4,78.2,66.5,54.5,63.2,57.9,52.5,97,77,47,30.02,29.89,5,1,14,0.00
2013-8-5,78.5,63.2,50.9,62.5,54.0,49.5,96,75,39,30.10,30.01,3,1,10,0.00
2013-8-6,80.4,66.0,49.9,64.1,57.6,48.8,97,77,47,30.13,30.06,4,1,13,0.00
2013-8-7,75.9,69.7,63.3,68.8,65.8,60.7,94,88,75,30.14,30.05,4,1,10,0.20
2013-8-8,84.8,73.5,68.5,77.6,70.9,67.3,96,92,73,30.06,29.98,4,0,11,0.37
2013-8-9,85.3,75.6,70.2,76.6,72.8,69.0,96,91,74,30.01,29.81,4,1,15,0.57
2013-8-10,83.9,72.3,60.1,71.0,65.6,59.0,97,82,53,30.08,29.90,4,1,12,0.01
2013-8-11,82.5,67.6,54.1,69.5,60.6,53.3,97,81,49,30.16,30.03,2,0,9,0.04
2013-8-12,84.0,71.2,62.8,69.8,64.8,60.9,96,83,50,30.06,29.94,2,0,8,0.19
2013-8-13,82.3,70.1,62.6,71.1,66.3,61.4,96,89,64,29.94,29.71,4,0,17,1.54
2013-8-14,73.3,62.3,51.6,62.7,53.2,49.7,96,74,50,30.09,29.79,6,1,16,0.00
2013-8-15,77.5,59.5,45.0,61.8,51.9,44.2,97,80,39,30.18,30.09,3,0,9,0.00
2013-8-16,81.0,62.9,47.9,63.6,54.1,46.8,97,77,40,30.22,30.15,2,0,7,0.00
2013-8-17,82.9,65.5,50.3,67.9,57.7,49.2,97,79,40,30.30,30.23,2,0,7,0.00
2013-8-18,73.1,65.6,58.0,66.7,61.7,56.9,96,88,71,30.28,30.16,1,0,3,0.02
2013-8-19,76.1,65.8,56.9,66.7,61.5,56.0,97,87,63,30.17,30.06,3,0,8,0.01
2013-8-20,87.3,70.7,57.9,72.1,64.2,56.8,96,82,52,30.16,30.08,3,0,9,0.00
2013-8-21,87.1,71.4,55.6,72.7,63.4,54.6,97,79,43,30.21,30.07,3,0,11,0.00
2013-8-22,83.0,70.6,64.5,75.6,68.2,63.3,96,92,72,30.09,29.90,3,0,12,0.23
2013-8-23,80.2,69.4,58.0,66.8,62.2,56.1,97,81,49,30.13,29.92,2,0,8,0.01
2013-8-24,78.8,65.2,51.7,62.8,55.0,50.6,96,73,38,30.37,30.13,4,1,13,0.00
2013-8-25,80.4,62.4,45.8,63.3,54.4,44.8,97,79,43,30.44,30.26,3,1,10,0.00
2013-8-26,84.8,68.7,57.5,70.9,63.2,56.4,96,84,61,30.27,29.95,4,1,10,0.05
2013-8-27,88.3,75.8,66.9,74.4,68.3,65.3,96,79,54,29.94,29.87,3,1,11,0.01
2013-8-28,75.1,69.5,63.5,72.7,68.1,62.3,96,95,90,29.91,29.86,1,0,7,0.61
2013-8-29,81.8,72.4,64.4,72.9,68.7,63.2,97,89,70,30.04,29.90,4,0,9,0.01
2013-8-30,83.0,72.9,66.6,73.0,68.6,64.7,96,87,69,30.04,29.87,4,1,11,0.00
2013-8-31,86.2,75.4,67.2,76.1,71.2,66.0,96,88,69,29.88,29.80,4,1,10,0.00
2013-9-1,84.6,76.3,69.7,76.7,72.4,68.4,96,88,72,29.86,29.78,3,0,10,0.07
2013-9-2,79.8,71.3,66.8,73.5,69.6,65.5,96,94,80,29.81,29.72,3,0,8,1.03
2013-9-3,80.9,70.9,58.7,69.7,63.3,57.0,96,79,48,29.93,29.74,4,1,14,0.01
2013-9-4,80.9,66.1,54.3,63.3,58.4,53.2,97,79,45,30.04,29.92,3,1,11,0.00
2013-9-5,75.9,63.1,50.9,64.0,54.4,45.9,97,77,38,30.19,29.97,4,1,13,0.00
2013-9-6,71.6,55.9,42.4,54.4,45.4,39.9,96,73,34,30.29,30.17,2,0,8,0.01
2013-9-7,78.5,58.7,40.3,61.6,50.2,39.3,97,78,38,30.17,29.93,3,1,10,0.00
2013-9-8,80.5,66.0,53.0,67.6,57.8,46.6,96,77,40,30.11,29.86,4,1,13,0.00
2013-9-9,74.0,61.0,42.5,61.9,52.4,41.2,96,75,52,30.25,30.11,3,1,11,0.00
2013-9-10,87.1,71.0,64.8,75.4,67.3,60.9,95,89,67,30.18,30.06,5,0,13,0.00
2013-9-11,93.3,78.4,65.7,80.6,72.4,64.5,96,83,58,30.14,29.99,4,1,12,0.00
2013-9-12,85.4,72.7,66.4,77.7,69.8,64.9,96,91,70,30.00,29.70,9,1,23,0.40
2013-9-13,74.5,65.9,55.1,65.3,58.9,48.0,96,79,55,29.90,29.67,6,1,18,0.08
2013-9-14,62.5,54.4,40.5,52.0,46.7,39.1,95,76,61,30.18,29.90,4,1,14,0.00
2013-9-15,72.0,52.4,37.1,56.8,45.8,36.1,97,82,43,30.26,30.11,3,1,10,0.00
2013-9-16,70.3,59.3,50.6,59.1,53.3,46.0,96,82,55,30.28,30.06,4,0,11,0.06
2013-9-17,66.2,51.1,38.4,48.2,42.3,37.1,96,75,44,30.46,30.28,4,1,14,0.00
2013-9-18,71.4,51.0,34.7,51.7,43.2,33.6,97,79,41,30.39,30.22,3,1,8,0.00
2013-9-19,76.0,56.6,36.5,57.6,48.0,35.5,97,77,40,30.23,30.10,3,1,12,0.00
2013-9-20,79.3,60.9,43.1,62.9,53.1,42.0,97,79,45,30.12,29.99,3,1,10,0.01
2013-9-21,78.3,61.6,47.0,64.1,55.3,45.9,97,83,46,30.02,29.69,5,1,15,0.56
2013-9-22,66.6,60.0,53.0,60.7,50.8,41.8,95,74,46,29.96,29.69,5,2,14,0.17
2013-9-23,64.0,53.0,42.4,47.6,43.4,40.2,94,71,49,30.08,29.96,7,1,15,0.00
2013-9-24,74.1,54.4,36.5,51.3,44.3,35.2,96,73,37,30.10,29.92,3,1,10,0.00
2013-9-25,72.9,54.2,37.4,55.8,46.0,36.1,97,77,40,30.00,29.90,2,0,8,0.00
2013-9-26,72.1,56.1,40.9,59.7,51.1,39.8,97,85,56,30.12,29.97,3,1,9,0.01
2013-9-27,69.6,58.3,47.7,56.1,51.5,46.3,95,80,55,30.29,30.13,2,0,7,0.00
2013-9-28,73.3,59.3,46.8,56.5,51.7,45.4,95,79,44,30.35,30.26,3,1,12,0.00
2013-9-29,72.4,54.8,41.0,59.6,49.6,39.9,97,85,54,30.26,30.10,3,0,8,0.00
2013-9-30,74.2,56.2,41.3,58.2,49.0,40.2,97,80,44,30.12,30.00,3,0,7,0.01
2013-10-1,80.9,59.5,43.9,62.8,52.8,42.8,97,81,49,30.06,29.94,3,1,12,0.00
2013-10-2,83.6,63.6,45.5,64.4,55.9,44.4,97,79,49,30.05,29.96,4,1,15,0.00
2013-10-3,78.9,62.7,48.5,65.2,56.7,47.4,97,83,44,30.15,30.05,3,0,8,0.01
2013-10-4,84.5,67.9,54.2,69.0,61.4,52.8,97,82,54,30.09,29.99,4,1,10,0.00
2013-10-5,83.7,70.1,60.7,69.7,64.5,59.3,95,84,57,30.10,30.01,3,0,8,0.00
2013-10-6,69.4,66.3,63.8,66.7,64.3,62.2,95,93,89,30.09,30.01,4,1,10,0.33
2013-10-7,75.1,65.8,52.3,70.6,63.3,47.8,95,92,78,30.01,29.74,6,2,20,0.50
2013-10-8,66.0,52.8,41.5,52.8,45.9,40.4,97,80,49,30.36,30.02,3,1,14,0.01
2013-10-9,60.2,51.8,44.2,48.3,45.1,41.7,95,79,57,30.42,30.31,4,1,11,0.00
2013-10-10,57.0,53.1,49.6,52.0,48.6,45.4,91,85,78,30.31,30.09,5,2,15,0.06
2013-10-11,63.5,59.2,54.6,60.7,54.4,49.4,93,84,77,30.10,30.03,5,2,14,0.11
2013-10-12,74.0,62.2,52.0,57.3,49.6,35.7,92,66,29,30.27,30.08,6,2,19,0.00
2013-10-13,66.0,58.4,49.9,54.2,51.2,48.2,95,78,61,30.39,30.27,4,2,13,0.00
2013-10-14,71.4,53.5,40.2,52.7,47.0,39.1,97,81,48,30.39,30.25,3,0,7,0.00
2013-10-15,73.1,54.0,40.9,58.1,47.5,39.8,97,81,37,30.28,30.14,4,1,10,0.00
2013-10-16,64.9,55.4,43.2,58.4,52.3,41.3,95,90,78,30.14,29.94,2,0,5,0.00
2013-10-17,74.6,65.1,57.4,63.3,59.8,56.0,95,84,58,29.94,29.69,5,1,12,0.03
2013-10-18,64.6,56.5,39.2,62.5,46.0,37.6,94,70,47,30.02,29.70,6,2,17,0.00
2013-10-19,62.4,47.5,33.2,51.2,41.5,32.2,97,82,51,30.02,29.79,4,1,13,0.12
2013-10-20,62.4,49.3,34.7,49.1,40.1,33.1,95,73,37,30.10,29.80,5,2,16,0.00
2013-10-21,67.2,47.3,29.7,46.4,36.9,28.4,97,73,36,30.18,30.00,5,1,14,0.00
2013-10-22,62.0,48.5,35.7,51.3,42.0,32.5,96,80,49,30.00,29.78,4,1,14,0.00
2013-10-23,53.7,41.1,29.4,40.5,34.4,28.0,95,79,50,29.85,29.67,4,1,11,0.01
2013-10-24,52.8,41.6,33.0,37.5,31.5,26.6,94,70,40,30.06,29.82,5,2,17,0.00
2013-10-25,52.7,44.3,29.7,36.8,33.2,26.3,93,66,45,30.27,30.06,9,2,15,0.00
2013-10-26,54.6,40.1,26.5,36.4,30.5,25.0,95,72,40,30.27,29.92,10,2,21,0.01
2013-10-27,55.7,44.3,32.0,37.6,33.0,28.8,90,66,43,30.17,29.89,5,1,15,0.00
2013-10-28,61.9,41.6,24.1,37.9,31.9,22.6,96,73,38,30.34,30.16,5,1,12,0.00
2013-10-29,57.5,44.8,32.0,36.8,33.7,29.6,92,67,42,30.45,30.34,3,1,12,0.00
2013-10-30,57.9,46.3,30.3,49.7,41.6,28.5,94,84,73,30.38,30.20,1,0,5,0.00
2013-10-31,64.7,56.4,46.9,59.1,53.9,45.3,95,91,79,30.25,29.80,6,1,15,0.05
2013-11-1,69.8,61.9,42.8,63.6,56.0,41.5,95,82,52,29.80,29.54,9,3,28,0.36
2013-11-2,65.8,49.8,37.9,50.9,43.7,36.1,96,82,51,29.83,29.66,3,0,12,0.00
2013-11-3,48.6,41.7,25.5,42.9,31.7,19.4,95,69,43,30.50,29.83,6,2,14,0.00
2013-11-4,45.6,33.4,20.4,24.7,20.5,16.4,91,62,32,30.69,30.50,6,1,15,0.00
2013-11-5,55.0,42.1,26.4,41.5,34.6,23.6,91,76,56,30.69,30.50,3,1,9,0.00
2013-11-6,61.4,52.8,42.5,49.4,45.7,39.5,90,78,60,30.52,30.09,5,1,11,0.00
2013-11-7,58.0,50.0,33.8,55.7,46.2,30.9,95,87,70,30.09,29.81,5,1,13,0.18
2013-11-8,46.7,39.7,28.4,36.9,30.3,25.8,92,70,51,30.27,29.99,7,2,18,0.05
2013-11-9,49.9,36.9,23.1,33.1,27.9,21.6,95,72,41,30.33,30.02,4,1,12,0.00
2013-11-10,56.6,44.6,32.4,37.8,32.6,29.2,92,65,46,30.11,29.89,7,3,20,0.00
2013-11-11,51.9,43.2,31.3,35.7,30.3,24.6,78,61,48,30.25,29.99,6,2,17,0.00
2013-11-12,48.1,34.4,25.4,36.7,22.6,15.3,83,62,51,30.35,29.96,7,2,20,0.00
2013-11-13,38.1,28.9,20.6,21.1,16.0,12.2,86,60,39,30.44,30.32,7,2,18,0.00
2013-11-14,51.3,36.2,22.3,22.8,20.1,18.0,87,55,27,30.32,30.21,7,2,15,0.00
2013-11-15,56.8,36.2,20.5,30.3,24.0,17.2,90,66,28,30.29,30.19,4,1,8,0.00
2013-11-16,60.8,45.9,32.3,46.6,40.0,27.4,95,81,51,30.36,30.28,3,0,7,0.04
2013-11-17,62.1,54.4,47.3,57.6,52.0,45.5,95,92,84,30.29,29.78,4,1,11,0.02
2013-11-18,62.9,56.3,46.4,60.0,42.2,27.9,94,62,34,29.85,29.63,9,3,21,0.33
2013-11-19,46.4,40.5,30.8,30.0,25.2,21.4,68,54,47,30.40,29.85,7,4,19,0.00
2013-11-20,45.5,33.0,19.8,21.3,18.6,11.4,88,58,26,30.65,30.40,6,2,16,0.00
2013-11-21,49.7,35.5,17.0,38.0,27.8,14.4,93,75,57,30.64,30.42,4,0,10,0.00
2013-11-22,53.4,48.3,43.0,48.4,44.8,37.8,94,88,81,30.42,29.97,4,1,12,0.03
2013-11-23,51.8,38.4,26.2,47.3,25.4,6.8,87,60,41,30.12,29.96,8,3,24,0.01
2013-11-24,27.1,22.8,19.6,10.2,3.9,0.8,56,44,37,30.45,30.10,11,5,28,0.00
2013-11-25,34.5,25.7,13.9,17.1,12.7,6.1,83,58,45,30.53,30.36,5,2,13,0.00
2013-11-26,43.6,32.2,28.3,41.9,24.4,15.2,95,74,49,30.36,29.74,4,1,9,0.79
2013-11-27,52.1,40.7,30.5,50.7,36.7,19.1,95,86,60,29.83,29.43,6,2,22,1.23
2013-11-28,33.9,28.5,22.0,24.0,16.1,11.7,82,61,40,30.50,29.83,7,3,22,0.00
2013-11-29,36.1,28.0,16.3,24.4,20.0,13.4,89,73,53,30.78,30.49,3,0,11,0.00
2013-11-30,34.7,25.5,14.3,27.8,18.4,11.6,91,75,53,30.78,30.42,3,1,10,0.00
2013-12-1,45.2,32.7,20.2,33.0,27.1,18.5,95,81,56,30.41,30.06,5,1,10,0.00
2013-12-2,46.4,35.6,27.2,33.7,30.1,25.0,93,81,57,30.05,29.91,1,0,3,0.00
2013-12-3,52.3,36.1,26.5,38.6,31.1,24.8,94,84,52,30.05,29.91,5,0,11,0.00
2013-12-4,50.1,40.3,26.1,42.7,35.9,24.6,95,85,68,30.15,30.04,2,0,7,0.00
2013-12-5,53.1,49.7,45.7,51.7,48.1,42.3,95,94,87,30.13,29.95,4,0,7,0.03
2013-12-6,55.3,43.8,35.1,54.1,41.4,33.0,96,91,79,30.20,29.89,4,1,16,0.84
2013-12-7,36.9,31.5,22.8,33.0,26.3,18.9,94,82,63,30.56,30.13,5,1,15,0.02
2013-12-8,29.8,25.2,18.2,26.8,19.9,14.8,95,81,64,30.63,30.40,2,1,7,0.00
2013-12-9,34.8,32.4,28.2,33.8,31.1,27.0,96,95,95,30.39,30.02,4,1,9,0.05
2013-12-10,32.4,28.0,14.3,30.7,25.7,12.6,95,91,75,30.17,29.94,3,1,9,0.00
2013-12-11,31.7,22.1,12.2,18.5,15.0,8.9,93,75,55,30.37,30.18,4,1,14,0.00
2013-12-12,26.1,20.4,8.3,16.6,9.3,3.2,83,62,45,30.41,30.20,5,2,15,0.00
2013-12-13,33.8,21.2,3.9,19.9,13.3,1.4,92,73,51,30.36,30.18,5,1,17,0.00
2013-12-14,26.2,23.3,20.2,24.3,20.2,18.0,95,88,76,30.49,29.81,5,2,13,0.00
2013-12-15,36.9,28.9,21.9,31.4,24.5,18.8,95,84,66,29.88,29.60,6,2,18,0.06
2013-12-16,29.4,20.7,6.7,22.0,10.4,3.4,88,65,43,30.26,29.87,6,2,16,0.00
2013-12-17,22.4,17.2,8.1,19.9,14.3,5.8,93,88,81,30.25,29.99,2,0,6,0.00
2013-12-18,35.7,20.4,2.9,24.4,14.8,0.4,95,80,59,30.23,29.99,6,1,16,0.00
2013-12-19,40.0,23.7,8.3,27.2,18.6,6.0,93,82,59,30.22,30.08,5,0,10,0.06
2013-12-20,49.5,34.6,24.1,33.3,28.7,22.1,94,81,52,30.15,30.01,2,0,4,0.12
2013-12-21,56.6,39.6,30.7,45.4,35.4,28.9,94,86,65,30.05,29.93,1,0,3,0.00
2013-12-22,63.7,53.2,37.1,59.4,51.1,34.7,97,93,84,29.99,29.82,6,1,17,0.04
2013-12-23,56.1,48.5,36.6,55.0,45.9,28.4,96,91,68,30.21,29.93,5,1,17,0.71
2013-12-24,36.5,31.3,21.7,28.9,21.8,12.1,92,68,57,30.41,30.15,7,2,20,0.00
2013-12-25,25.0,20.6,13.2,14.9,10.2,6.1,76,64,52,30.58,30.41,4,1,16,0.00
2013-12-26,32.5,23.9,15.1,27.2,20.2,12.5,93,86,68,30.45,30.21,3,0,12,0.00
2013-12-27,38.5,25.4,15.2,25.7,20.3,13.5,94,82,55,30.40,30.31,4,1,12,0.01
2013-12-28,51.3,29.5,14.9,31.5,23.2,13.2,95,80,44,30.33,30.11,5,1,18,0.01
2013-12-29,41.1,35.2,26.0,39.8,33.3,24.0,95,92,88,30.12,29.51,5,1,16,0.87
2013-12-30,42.1,32.9,20.3,37.3,26.2,12.0,95,77,61,30.21,29.76,7,2,15,0.01
2013-12-31,29.9,21.9,11.9,25.6,14.2,8.9,91,72,58,30.34,30.09,6,2,25,0.00
2014-1-1,31.1,24.6,13.8,21.8,17.3,9.0,88,74,62,30.43,30.26,3,0,8,0.00
2014-1-2,28.4,21.5,11.6,21.9,17.3,9.5,91,84,75,30.25,29.73,6,3,15,0.00